{"data":{"norad_id":65896,"epoch":"2026-09-20T05:59:28.018176Z","epoch_age_seconds":127699,"freshness":"FRESH","line1":"1 65896U 25224Q   26263.24962984  .00015263  00000+0  50235-3 0  9996","line2":"2 65896  53.1606 186.1175 0001558 102.1213 257.9964 15.31716726 54689","mean_motion":15.31716726,"eccentricity":0.0001558,"inclination_deg":53.1606,"raan_deg":186.1175,"arg_perigee_deg":102.1213,"mean_anomaly_deg":257.9964,"bstar":0.00050235,"rev_number":5468,"period_min":94.012161358353,"perigee_km":469.62308907587,"apogee_km":471.75718361155,"semimajor_km":6848.8271363437,"source":"CELESTRAK","updated_at":"2026-09-21T09:00:35.759134Z"}}